Location: Fouquenies
(49.4624°N, 2.0492°E)
Time: 07:51:08
(UTC+00:00)

Meteor PRIRODA - Pass Details

Date: 03 February 2023
Orbit: 475 x 489 km, 97.6° (Epoch: 22 March)

Event Time Altitude Azimuth Distance (km) Brightness Sun altitude
Rises 17:38:09 0° 172° (S) 2,514 7.3 -8.1°
Reaches altitude 10° 17:40:12 10° 175° (S) 1,641 6.4 -8.4°
Maximum altitude 17:43:42 66° 258° (WSW) 526 4.0 -9.0°
Drops below altitude 10° 17:47:15 10° 341° (NNW) 1,658 6.3 -9.5°
Sets 17:49:20 0° 345° (NNW) 2,544 7.2 -9.8°
